{"data":{"norad_id":60452,"intl_designator":"2024-146A","name":"LEGION 3","alt_names":[],"object_type":"PAYLOAD","status":"ACTIVE","operator":null,"country":"US","launch_date":"2024-08-15","launch_site_code":"AFETR","launch_vehicle":null,"mission":null,"orbit_class":"UNKNOWN","rcs_meters":null,"size_class":null,"mass_kg":null,"dimensions":null,"purposes":["earth_obs"],"wikipedia_slug":null,"has_3d_model":false,"image_url":null,"decayed_at":null,"tle_current":{"epoch":"2026-09-19T23:05:25.809792Z","epoch_age_seconds":68497,"freshness":"FRESH","line1":"1 60452U 24146A   26262.96210428  .00002696  00000+0  15120-3 0  9998","line2":"2 60452  45.0008 242.4036 0007550 355.2391   4.8415 15.16058457116408","mean_motion":15.16058457,"eccentricity":0.000755,"inclination_deg":45.0008,"raan_deg":242.4036,"arg_perigee_deg":355.2391,"mean_anomaly_deg":4.8415,"bstar":0.0001512,"rev_number":11640,"period_min":94.983144835292,"perigee_km":512.56063729696,"apogee_km":522.97345240469,"semimajor_km":6895.9040448508,"source":"CELESTRAK","updated_at":"2026-09-20T09:00:33.980027Z"}}}